FLOCK 4P-7

Last updated on Sat Dec 28 2019 00:02:03 GMT+0000 (Coordinated Universal Time)

1 44816U 19081N 19361.16447090 .00000543 00000-0 28683-4 0 9996 2 44816 97.5204 58.1089 0012783 130.9672 229.2671 15.19693203 4554
UTC large
Height (km)
Speed (km/s)
/
Latitude / Longitude
Inclination (degrees)
Orbital Period (minutes)
Azimuth
Elevation
Range (km)
Doppler Factor

Next 0 passes for location: London (51.5072 / 0.1276)

Sorry there are no passes over London.